Location: Górki Wielkie
(49.7717°N, 18.8528°E)
Time: 04:57:17
(UTC+01:00)

ISS - Visible Passes

Search period start: 24 November 2017 00:00
Search period end: 04 December 2017 00:00
Orbit: 402 x 407 km, 51.6° (Epoch: 24 November)

Date Brightness Start Highest point End Pass type
(mag) Time Alt. Az. Time Alt. Az. Time Alt. Az.
28 Nov -1.5 18:16:37 10° SSW 18:17:50 19° SSW 18:17:50 19° SSW visible
29 Nov -2.1 17:24:52 10° SSW 17:27:21 20° SE 17:27:45 20° SE visible
29 Nov -0.4 19:00:12 10° WSW 19:00:25 11° WSW 19:00:25 11° WSW visible
30 Nov -1.4 16:33:44 10° SSE 16:35:14 13° SE 16:36:43 10° ESE visible
30 Nov -2.7 18:07:55 10° SW 18:10:15 39° SSW 18:10:15 39° SSW visible
01 Dec -2.9 17:15:46 10° SW 17:18:50 36° SSE 17:20:01 26° ESE visible
01 Dec -0.7 18:51:54 10° W 18:52:40 16° W 18:52:40 16° W visible
02 Dec -2.2 16:23:53 10° SSW 16:26:34 23° SE 16:29:16 10° E visible
02 Dec -3.6 17:59:28 10° WSW 18:02:23 68° WSW 18:02:23 68° WSW visible
03 Dec -3.7 17:07:06 10° WSW 17:10:21 64° SSE 17:12:04 25° E visible
03 Dec -1.0 18:43:37 10° W 18:44:42 19° W 18:44:42 19° W visible
